| time (UTC) | temp C | wind direction | speed KPH | gust KPH | rain 1hr cm | rain 24hr cm | rain mn cm | humidity % | barometer mb |
| 20260510020059 | 25 | 0.0 | 0.0 | 0.00 | 0.00 | 0.00 | 70 | 1009.6 | |
| 20260510015049 | 25 | 0.0 | 1.6 | 0.00 | 0.00 | 0.00 | 68 | 1009.4 | |
| 20260510014040 | 25 | 0.0 | 0.0 | 0.00 | 0.00 | 0.00 | 66 | 1009.2 | |
| 20260510013029 | 25 | 0.0 | 1.6 | 0.00 | 0.00 | 0.00 | 63 | 1009.2 | |
| 20260510012059 | 26 | 107 | 0.0 | 6.4 | 0.00 | 0.00 | 0.00 | 61 | 1009.2 |
| 20260510011130 | 25 | 273 | 0.0 | 3.2 | 0.00 | 0.00 | 0.00 | 61 | 1009.2 |
| 20260510010100 | 25 | 85 | 0.0 | 1.6 | 0.00 | 0.00 | 0.00 | 62 | 1009.1 |
| 20260510005050 | 25 | 216 | 1.6 | 1.6 | 0.00 | 0.00 | 0.00 | 61 | 1008.6 |
| 20260510004040 | 25 | 182 | 3.2 | 11.3 | 0.00 | 0.00 | 0.00 | 60 | 1009.0 |
| 20260510003030 | 25 | 131 | 0.0 | 4.8 | 0.00 | 0.00 | 0.00 | 60 | 1009.0 |
| 20260510002020 | 25 | 180 | 1.6 | 4.8 | 0.00 | 0.00 | 0.00 | 63 | 1009.1 |
| 20260510001111 | 24 | 120 | 1.6 | 9.7 | 0.00 | 0.00 | 0.00 | 65 | 1009.4 |
| 20260509235051 | 28 | 172 | 4.8 | 16.1 | 0.00 | 0.00 | 0.00 | 60 | 1008.9 |
| 20260509234041 | 29 | 157 | 4.8 | 11.3 | 0.00 | 0.00 | 0.00 | 55 | 1008.6 |
| 20260509233031 | 31 | 181 | 1.6 | 9.7 | 0.00 | 0.00 | 0.00 | 61 | 1008.4 |
| 20260509232021 | 31 | 0.0 | 3.2 | 0.00 | 0.00 | 0.00 | 61 | 1008.2 | |
| 20260509231112 | 31 | 0.0 | 1.6 | 0.00 | 0.00 | 0.00 | 61 | 1008.5 | |
| 20260509225052 | 31 | 250 | 0.0 | 1.6 | 0.00 | 0.00 | 0.00 | 59 | 1008.1 |
| 20260509224042 | 31 | 303 | 0.0 | 1.6 | 0.00 | 0.00 | 0.00 | 60 | 1008.0 |
| 20260509223032 | 31 | 74 | 0.0 | 1.6 | 0.00 | 0.00 | 0.00 | 60 | 1008.2 |
| 20260509222022 | 31 | 308 | 0.0 | 3.2 | 0.00 | 0.00 | 0.00 | 57 | 1008.0 |
| 20260509221113 | 32 | 28 | 0.0 | 3.2 | 0.00 | 0.00 | 0.00 | 59 | 1008.0 |
| 20260509215052 | 31 | 83 | 0.0 | 3.2 | 0.00 | 0.00 | 0.00 | 58 | 1007.9 |
| 20260509214123 | 31 | 13 | 0.0 | 3.2 | 0.00 | 0.00 | 0.00 | 60 | 1008.0 |
| 20260509213032 | 32 | 85 | 1.6 | 6.4 | 0.00 | 0.00 | 0.00 | 59 | 1008.0 |
| 20260509212022 | 32 | 37 | 0.0 | 4.8 | 0.00 | 0.00 | 0.00 | 61 | 1008.1 |
| 20260509211113 | 32 | 33 | 1.6 | 3.2 | 0.00 | 0.00 | 0.00 | 61 | 1008.2 |
| 20260509205053 | 32 | 51 | 1.6 | 3.2 | 0.00 | 0.00 | 0.00 | 61 | 1008.6 |
| 20260509204043 | 32 | 206 | 0.0 | 4.8 | 0.00 | 0.00 | 0.00 | 60 | 1008.7 |
| 20260509203113 | 31 | 80 | 0.0 | 1.6 | 0.00 | 0.00 | 0.00 | 63 | 1008.8 |
| 20260509202043 | 31 | 320 | 1.6 | 4.8 | 0.00 | 0.00 | 0.00 | 64 | 1008.7 |
| 20260509201114 | 31 | 315 | 0.0 | 4.8 | 0.00 | 0.00 | 0.00 | 63 | 1008.9 |
| 20260509200124 | 31 | 27 | 0.0 | 3.2 | 0.00 | 0.00 | 0.00 | 66 | 1009.0 |
| 20260509195054 | 31 | 105 | 1.6 | 3.2 | 0.00 | 0.00 | 0.00 | 63 | 1009.2 |
| 20260509194104 | 31 | 237 | 1.6 | 6.4 | 0.00 | 0.00 | 0.00 | 63 | 1009.2 |
| 20260509193034 | 31 | 25 | 0.0 | 3.2 | 0.00 | 0.00 | 0.00 | 64 | 1009.4 |
| 20260509192024 | 31 | 304 | 0.0 | 3.2 | 0.00 | 0.00 | 0.00 | 63 | 1009.4 |
| 20260509191115 | 31 | 88 | 0.0 | 1.6 | 0.00 | 0.00 | 0.00 | 62 | 1009.4 |
| 20260509190125 | 31 | 47 | 0.0 | 1.6 | 0.00 | 0.00 | 0.00 | 62 | 1009.4 |
| 20260509185055 | 31 | 143 | 0.0 | 4.8 | 0.00 | 0.03 | 0.00 | 64 | 1009.6 |
| 20260509184045 | 30 | 127 | 1.6 | 4.8 | 0.00 | 0.03 | 0.00 | 65 | 1009.8 |
| 20260509183034 | 30 | 353 | 0.0 | 3.2 | 0.00 | 0.03 | 0.00 | 69 | 1009.8 |
| 20260509182044 | 30 | 313 | 1.6 | 3.2 | 0.00 | 0.03 | 0.00 | 65 | 1009.9 |
| 20260509181135 | 30 | 295 | 1.6 | 3.2 | 0.00 | 0.03 | 0.00 | 66 | 1010.2 |
| 20260509180106 | 30 | 171 | 1.6 | 4.8 | 0.00 | 0.03 | 0.00 | 68 | 1010.4 |
| 20260509175116 | 29 | 204 | 1.6 | 4.8 | 0.00 | 0.03 | 0.00 | 69 | 1010.4 |
| 20260509174045 | 29 | 210 | 1.6 | 4.8 | 0.00 | 0.03 | 0.00 | 72 | 1010.7 |
| 20260509173035 | 30 | 149 | 3.2 | 6.4 | 0.00 | 0.03 | 0.00 | 70 | 1010.7 |
| 20260509172025 | 29 | 127 | 3.2 | 9.7 | 0.00 | 0.03 | 0.00 | 72 | 1010.8 |
| 20260509171015 | 28 | 280 | 3.2 | 6.4 | 0.00 | 0.03 | 0.00 | 77 | 1010.6 |
| 20260509170106 | 27 | 0.0 | 1.6 | 0.00 | 0.03 | 0.00 | 78 | 1011.0 | |
| 20260509165056 | 27 | 0.0 | 1.6 | 0.00 | 0.03 | 0.00 | 81 | 1010.9 | |
| 20260509164046 | 27 | 0.0 | 1.6 | 0.00 | 0.03 | 0.00 | 82 | 1011.0 | |
| 20260509163036 | 26 | 29 | 1.6 | 3.2 | 0.00 | 0.03 | 0.00 | 82 | 1011.1 |
| 20260509162026 | 26 | 0.0 | 1.6 | 0.00 | 0.03 | 0.00 | 84 | 1011.0 | |
| 20260509161016 | 26 | 0.0 | 3.2 | 0.00 | 0.03 | 0.00 | 83 | 1011.2 | |
| 20260509160107 | 26 | 0.0 | 0.0 | 0.00 | 0.03 | 0.00 | 84 | 1011.0 | |
| 20260509155137 | 26 | 307 | 0.0 | 1.6 | 0.00 | 0.03 | 0.00 | 85 | 1011.1 |
| 20260509154047 | 26 | 0.0 | 0.0 | 0.00 | 0.03 | 0.00 | 86 | 1011.3 | |
| 20260509153037 | 26 | 28 | 0.0 | 1.6 | 0.00 | 0.03 | 0.00 | 87 | 1011.0 |
| 20260509152027 | 26 | 65 | 0.0 | 1.6 | 0.00 | 0.03 | 0.00 | 87 | 1010.9 |
| 20260509151037 | 25 | 40 | 1.6 | 4.8 | 0.00 | 0.03 | 0.00 | 87 | 1010.9 |
| 20260509150108 | 25 | 0.0 | 1.6 | 0.00 | 0.03 | 0.00 | 88 | 1010.9 | |
| 20260509145058 | 25 | 0.0 | 1.6 | 0.00 | 0.03 | 0.00 | 89 | 1010.6 | |
| 20260509144127 | 25 | 0.0 | 0.0 | 0.00 | 0.03 | 0.00 | 90 | 1010.5 | |
| 20260509143038 | 25 | 0.0 | 0.0 | 0.00 | 0.03 | 0.00 | 91 | 1010.2 | |
| 20260509142147 | 24 | 0.0 | 0.0 | 0.00 | 0.03 | 0.00 | 92 | 1010.2 | |
| 20260509141018 | 24 | 0.0 | 0.0 | 0.00 | 0.03 | 0.00 | 93 | 1010.3 | |
| 20260509140109 | 24 | 0.0 | 1.6 | 0.00 | 0.03 | 0.00 | 93 | 1009.9 | |
| 20260509135059 | 24 | 156 | 0.0 | 1.6 | 0.00 | 0.03 | 0.00 | 93 | 1010.1 |
| 20260509134049 | 24 | 107 | 0.0 | 3.2 | 0.00 | 0.03 | 0.00 | 94 | 1010.7 |
| 20260509133059 | 24 | 0.0 | 3.2 | 0.00 | 0.03 | 0.00 | 94 | 1010.7 | |
| 20260509132028 | 24 | 42 | 0.0 | 3.2 | 0.00 | 0.03 | 0.00 | 95 | 1010.9 |
| 20260509131038 | 24 | 205 | 0.0 | 1.6 | 0.00 | 0.03 | 0.00 | 96 | 1011.0 |
| 20260509130109 | 23 | 0.0 | 0.0 | 0.00 | 0.03 | 0.00 | 96 | 1011.2 | |
| 20260509125059 | 23 | 0.0 | 0.0 | 0.00 | 0.03 | 0.00 | 96 | 1011.1 | |
| 20260509124049 | 23 | 0.0 | 0.0 | 0.00 | 0.03 | 0.00 | 96 | 1010.7 | |
| 20260509123039 | 23 | 0.0 | 0.0 | 0.00 | 0.03 | 0.00 | 96 | 1010.9 | |
| 20260509122029 | 23 | 0.0 | 0.0 | 0.00 | 0.03 | 0.00 | 96 | 1011.0 | |
| 20260509121019 | 23 | 0.0 | 0.0 | 0.00 | 0.03 | 0.00 | 96 | 1010.9 | |
| 20260509120110 | 23 | 0.0 | 0.0 | 0.00 | 0.03 | 0.00 | 96 | 1010.9 | |
| 20260509115120 | 23 | 0.0 | 0.0 | 0.00 | 0.03 | 0.00 | 96 | 1010.5 | |
| 20260509114050 | 23 | 0.0 | 0.0 | 0.00 | 0.03 | 0.00 | 96 | 1010.8 | |
| 20260509113100 | 23 | 0.0 | 0.0 | 0.00 | 0.03 | 0.00 | 96 | 1010.7 | |
| 20260509112030 | 23 | 0.0 | 0.0 | 0.00 | 0.03 | 0.00 | 96 | 1010.9 | |
| 20260509111020 | 23 | 0.0 | 0.0 | 0.00 | 0.03 | 0.00 | 96 | 1010.6 | |
| 20260509110211 | 23 | 0.0 | 0.0 | 0.00 | 0.03 | 0.00 | 95 | 1010.3 | |
| 20260509105100 | 23 | 0.0 | 0.0 | 0.00 | 0.03 | 0.00 | 95 | 1010.2 | |
| 20260509104050 | 23 | 0.0 | 0.0 | 0.00 | 0.03 | 0.00 | 95 | 1010.1 | |
| 20260509103100 | 23 | 0.0 | 1.6 | 0.00 | 0.03 | 0.00 | 95 | 1010.1 | |
| 20260509102051 | 23 | 202 | 0.0 | 1.6 | 0.00 | 0.03 | 0.00 | 95 | 1010.2 |
| 20260509101020 | 23 | 0.0 | 0.0 | 0.00 | 0.03 | 0.00 | 95 | 1010.1 | |
| 20260509100111 | 23 | 0.0 | 0.0 | 0.00 | 0.03 | 0.00 | 95 | 1009.9 | |
| 20260509095121 | 23 | 0.0 | 0.0 | 0.00 | 0.03 | 0.00 | 95 | 1009.7 | |
| 20260509094051 | 23 | 0.0 | 0.0 | 0.00 | 0.03 | 0.00 | 95 | 1009.7 | |
| 20260509093041 | 23 | 0.0 | 0.0 | 0.00 | 0.03 | 0.00 | 95 | 1009.7 | |
| 20260509092031 | 23 | 0.0 | 0.0 | 0.00 | 0.03 | 0.00 | 95 | 1009.8 | |
| 20260509091021 | 23 | 0.0 | 0.0 | 0.00 | 0.03 | 0.00 | 95 | 1010.1 | |
| 20260509090112 | 23 | 0.0 | 0.0 | 0.00 | 0.03 | 0.00 | 95 | 1010.1 | |
| 20260509085102 | 23 | 0.0 | 0.0 | 0.00 | 0.03 | 0.00 | 95 | 1010.2 | |
| 20260509084052 | 23 | 0.0 | 0.0 | 0.00 | 0.03 | 0.00 | 95 | 1010.3 | |
| 20260509083042 | 23 | 0.0 | 0.0 | 0.00 | 0.03 | 0.00 | 95 | 1010.2 | |
| 20260509082052 | 23 | 0.0 | 0.0 | 0.00 | 0.03 | 0.00 | 95 | 1010.2 | |
| 20260509081022 | 23 | 155 | 0.0 | 3.2 | 0.00 | 0.03 | 0.00 | 95 | 1010.1 |
| 20260509080113 | 23 | 0.0 | 1.6 | 0.00 | 0.03 | 0.00 | 95 | 1010.0 | |
| 20260509075103 | 23 | 0.0 | 1.6 | 0.00 | 0.03 | 0.00 | 95 | 1010.0 | |
| 20260509074053 | 23 | 57 | 0.0 | 3.2 | 0.00 | 0.03 | 0.00 | 95 | 1010.1 |
| 20260509073043 | 23 | 236 | 1.6 | 6.4 | 0.00 | 0.03 | 0.00 | 95 | 1009.8 |
| 20260509072033 | 23 | 193 | 1.6 | 3.2 | 0.00 | 0.03 | 0.00 | 95 | 1009.8 |
| 20260509071022 | 23 | 222 | 1.6 | 3.2 | 0.00 | 0.03 | 0.00 | 95 | 1010.0 |
| 20260509070114 | 23 | 102 | 1.6 | 4.8 | 0.00 | 0.03 | 0.00 | 95 | 1010.2 |
| 20260509065104 | 23 | 142 | 0.0 | 1.6 | 0.00 | 0.03 | 0.00 | 94 | 1010.2 |
| 20260509064053 | 23 | 0.0 | 1.6 | 0.00 | 0.03 | 0.00 | 94 | 1010.4 | |
| 20260509063043 | 23 | 0.0 | 0.0 | 0.00 | 0.03 | 0.00 | 94 | 1010.5 | |
| 20260509062034 | 23 | 0.0 | 0.0 | 0.00 | 0.03 | 0.00 | 94 | 1010.5 | |
| 20260509061023 | 23 | 28 | 0.0 | 3.2 | 0.00 | 0.03 | 0.00 | 94 | 1010.7 |
| 20260509060114 | 23 | 180 | 0.0 | 4.8 | 0.00 | 0.03 | 0.00 | 93 | 1010.5 |
| 20260509055124 | 23 | 0.0 | 1.6 | 0.00 | 0.03 | 0.00 | 93 | 1010.7 | |
| 20260509054054 | 23 | 191 | 0.0 | 3.2 | 0.00 | 0.03 | 0.00 | 93 | 1010.6 |
| 20260509053044 | 23 | 0.0 | 1.6 | 0.00 | 0.03 | 0.00 | 93 | 1010.6 | |
| 20260509052035 | 23 | 276 | 0.0 | 3.2 | 0.00 | 0.03 | 0.00 | 93 | 1010.7 |
| 20260509051024 | 23 | 210 | 1.6 | 3.2 | 0.00 | 0.03 | 0.00 | 93 | 1010.7 |
| 20260509050115 | 23 | 235 | 0.0 | 3.2 | 0.00 | 0.03 | 0.00 | 93 | 1010.6 |
| 20260509045125 | 23 | 354 | 1.6 | 3.2 | 0.00 | 0.03 | 0.03 | 93 | 1010.6 |
| 20260509044055 | 23 | 76 | 0.0 | 3.2 | 0.00 | 0.03 | 0.03 | 92 | 1010.7 |
| 20260509043045 | 23 | 248 | 0.0 | 1.6 | 0.00 | 0.03 | 0.03 | 92 | 1010.7 |
| 20260509042035 | 23 | 243 | 0.0 | 1.6 | 0.00 | 0.03 | 0.03 | 92 | 1010.7 |
| 20260509041025 | 23 | 48 | 0.0 | 3.2 | 0.00 | 0.03 | 0.03 | 92 | 1010.6 |
| 20260509040116 | 23 | 131 | 0.0 | 3.2 | 0.00 | 0.03 | 0.03 | 91 | 1010.6 |
| 20260509035106 | 23 | 194 | 0.0 | 3.2 | 0.00 | 0.03 | 0.03 | 91 | 1010.4 |
| 20260509034056 | 23 | 217 | 0.0 | 1.6 | 0.00 | 0.03 | 0.03 | 91 | 1010.4 |
| 20260509033046 | 23 | 281 | 1.6 | 4.8 | 0.00 | 0.03 | 0.03 | 90 | 1010.3 |
| 20260509032036 | 23 | 300 | 0.0 | 4.8 | 0.00 | 0.03 | 0.03 | 90 | 1010.0 |
| 20260509031025 | 23 | 308 | 1.6 | 3.2 | 0.00 | 0.03 | 0.03 | 90 | 1010.2 |
| 20260509030117 | 23 | 244 | 3.2 | 6.4 | 0.00 | 0.03 | 0.03 | 90 | 1010.1 |
| 20260509025107 | 23 | 267 | 1.6 | 3.2 | 0.00 | 0.03 | 0.03 | 90 | 1010.0 |
| 20260509024117 | 23 | 84 | 1.6 | 6.4 | 0.00 | 0.03 | 0.03 | 90 | 1010.1 |
| 20260509023047 | 23 | 347 | 1.6 | 3.2 | 0.00 | 0.03 | 0.03 | 90 | 1009.8 |
| 20260509022037 | 23 | 262 | 0.0 | 3.2 | 0.00 | 0.03 | 0.03 | 90 | 1009.9 |
| 20260509021026 | 23 | 360 | 0.0 | 3.2 | 0.00 | 0.03 | 0.03 | 90 | 1009.7 |